When you browse on this site, cookies collect data to enhance your experience and personalize the content and advertising you see.
Visit our Privacy Policy to learn more. By continuing to use the site, you agree to this use of cookies and data.
  • en France
  • Liste des pays
  • À 7 jours
  • Température de l'eau
  • Carte satellitaire
  • Carte météo
  • Widgets météo
  • user-avatar
    Se connecter

    Météo par heure à Canberra

    Ce jour, 12 Décembre, Mercredi

    Heure Température Précipitation Vent Pression Humidité
    00:00 +15°C° 0 mm 1 m/s 709 mmHg 96%
    01:00 +14°C° 0 mm 1 m/s 709 mmHg 96%
    02:00 +14°C° 0 mm 1 m/s 709 mmHg 96%
    03:00 +14°C° 0 mm 1 m/s 709 mmHg 96%
    04:00 +14°C° 0 mm 1 m/s 708 mmHg 95%
    05:00 +15°C° 0 mm 1 m/s 709 mmHg 92%
    06:00 +16°C° 0 mm 2 m/s 709 mmHg 89%
    07:00 +16°C° 0 mm 2 m/s 709 mmHg 87%
    08:00 +18°C° 0 mm 2 m/s 709 mmHg 77%
    09:00 +21°C° 0 mm 2 m/s 709 mmHg 67%
    10:00 +24°C° 0 mm 2 m/s 709 mmHg 54%
    11:00 +26°C° 0 mm 2 m/s 708 mmHg 49%
    12:00 +27°C° 0 mm 2 m/s 708 mmHg 44%
    13:00 +28°C° 0 mm 3 m/s 708 mmHg 40%
    14:00 +28°C° 0 mm 3 m/s 707 mmHg 43%
    15:00 +27°C° 0 mm 3 m/s 706 mmHg 46%
    16:00 +27°C° 0 mm 3 m/s 706 mmHg 49%
    17:00 +25°C° 0.1 mm 3 m/s 705 mmHg 56%
    18:00 +24°C° 0.1 mm 2 m/s 705 mmHg 64%
    19:00 +21°C° 0.1 mm 2 m/s 704 mmHg 71%
    20:00 +20°C° 0 mm 3 m/s 704 mmHg 77%
    21:00 +19°C° 0 mm 3 m/s 704 mmHg 83%
    22:00 +18°C° 0 mm 3 m/s 704 mmHg 88%
    23:00 +18°C° 0.1 mm 3 m/s 704 mmHg 90%

    Demain, 13 Décembre, Jeudi

    Heure Température Précipitation Vent Pression Humidité
    00:00 +17°C° 0.1 mm 2 m/s 703 mmHg 91%
    01:00 +17°C° 0.1 mm 2 m/s 703 mmHg 92%
    02:00 +17°C° 0.5 mm 2 m/s 702 mmHg 93%
    03:00 +17°C° 0.5 mm 2 m/s 702 mmHg 94%
    04:00 +17°C° 0.5 mm 2 m/s 701 mmHg 94%
    05:00 +17°C° 2.3 mm 2 m/s 701 mmHg 95%
    06:00 +18°C° 2.3 mm 2 m/s 700 mmHg 95%
    07:00 +18°C° 2.3 mm 2 m/s 700 mmHg 96%
    08:00 +19°C° 1.3 mm 2 m/s 700 mmHg 93%
    09:00 +20°C° 1.3 mm 3 m/s 699 mmHg 90%
    10:00 +21°C° 1.3 mm 3 m/s 699 mmHg 87%
    11:00 +22°C° 0.9 mm 3 m/s 699 mmHg 82%
    12:00 +24°C° 0.9 mm 3 m/s 698 mmHg 77%
    13:00 +25°C° 0.9 mm 4 m/s 698 mmHg 73%
    14:00 +25°C° 2 mm 3 m/s 697 mmHg 73%
    15:00 +25°C° 2 mm 3 m/s 697 mmHg 74%
    16:00 +25°C° 2 mm 2 m/s 696 mmHg 74%
    17:00 +23°C° 3.4 mm 2 m/s 696 mmHg 78%
    18:00 +21°C° 3.4 mm 2 m/s 696 mmHg 83%
    19:00 +20°C° 3.4 mm 2 m/s 696 mmHg 87%
    20:00 +19°C° 0.9 mm 2 m/s 697 mmHg 90%
    21:00 +19°C° 0.9 mm 2 m/s 697 mmHg 93%
    22:00 +18°C° 0.9 mm 2 m/s 698 mmHg 96%
    23:00 +17°C° 0.9 mm 3 m/s 698 mmHg 96%

    Après-demain, 14 Décembre, Vendredi

    Heure Température Précipitation Vent Pression Humidité
    00:00 +17°C° 0.9 mm 3 m/s 697 mmHg 96%
    01:00 +16°C° 0.9 mm 3 m/s 697 mmHg 95%
    02:00 +14°C° 0.3 mm 3 m/s 697 mmHg 94%
    03:00 +13°C° 0.3 mm 3 m/s 697 mmHg 93%
    04:00 +13°C° 0.3 mm 3 m/s 696 mmHg 91%
    05:00 +13°C° 0.2 mm 3 m/s 697 mmHg 87%
    06:00 +14°C° 0.2 mm 2 m/s 698 mmHg 82%
    07:00 +14°C° 0.2 mm 2 m/s 699 mmHg 77%
    08:00 +17°C° 0 mm 2 m/s 699 mmHg 66%
    09:00 +19°C° 0 mm 3 m/s 700 mmHg 56%
    10:00 +21°C° 0 mm 3 m/s 700 mmHg 45%
    11:00 +22°C° 0 mm 3 m/s 700 mmHg 42%
    12:00 +23°C° 0 mm 4 m/s 700 mmHg 39%
    13:00 +26°C° 0 mm 4 m/s 700 mmHg 36%
    14:00 +25°C° 0.2 mm 3 m/s 700 mmHg 40%
    15:00 +24°C° 0.2 mm 3 m/s 699 mmHg 44%
    16:00 +24°C° 0.2 mm 3 m/s 699 mmHg 48%
    17:00 +21°C° 0.7 mm 3 m/s 699 mmHg 57%
    18:00 +20°C° 0.7 mm 2 m/s 700 mmHg 66%
    19:00 +19°C° 0.7 mm 2 m/s 700 mmHg 75%
    20:00 +18°C° 0.4 mm 2 m/s 700 mmHg 80%
    21:00 +17°C° 0.4 mm 2 m/s 700 mmHg 85%
    22:00 +18°C° 0.4 mm 1 m/s 701 mmHg 90%
    23:00 +18°C° 0.1 mm 1 m/s 700 mmHg 90%

    15 Décembre, Samedi

    Heure Température Précipitation Vent Pression Humidité
    00:00 +16°C° 0.1 mm 1 m/s 700 mmHg 91%
    01:00 +16°C° 0.1 mm 1 m/s 700 mmHg 91%
    02:00 +16°C° 0 mm 1 m/s 700 mmHg 90%
    03:00 +15°C° 0 mm 1 m/s 700 mmHg 90%
    04:00 +15°C° 0 mm 1 m/s 700 mmHg 89%
    05:00 +16°C° 0 mm 1 m/s 701 mmHg 80%
    06:00 +19°C° 0 mm 1 m/s 701 mmHg 71%
    07:00 +19°C° 0 mm 2 m/s 702 mmHg 62%
    08:00 +21°C° 0 mm 3 m/s 702 mmHg 51%
    09:00 +25°C° 0 mm 4 m/s 702 mmHg 40%
    10:00 +27°C° 0 mm 5 m/s 703 mmHg 30%
    11:00 +28°C° 0 mm 5 m/s 702 mmHg 30%
    12:00 +29°C° 0 mm 5 m/s 702 mmHg 31%
    13:00 +29°C° 0 mm 5 m/s 701 mmHg 31%
    14:00 +29°C° 0.1 mm 5 m/s 701 mmHg 34%
    15:00 +28°C° 0.1 mm 5 m/s 701 mmHg 36%
    16:00 +28°C° 0.1 mm 4 m/s 700 mmHg 38%
    17:00 +26°C° 0.5 mm 4 m/s 701 mmHg 47%
    18:00 +25°C° 0.5 mm 3 m/s 701 mmHg 56%
    19:00 +22°C° 0.5 mm 3 m/s 701 mmHg 64%
    20:00 +21°C° 0.2 mm 2 m/s 701 mmHg 70%
    21:00 +21°C° 0.2 mm 1 m/s 702 mmHg 75%
    22:00 +19°C° 0.2 mm 1 m/s 702 mmHg 81%
    23:00 +19°C° 0 mm 1 m/s 702 mmHg 82%

    16 Décembre, Dimanche

    Heure Température Précipitation Vent Pression Humidité
    00:00 +18°C° 0 mm 1 m/s 702 mmHg 83%
    01:00 +18°C° 0 mm 1 m/s 702 mmHg 83%
    02:00 +18°C° 0 mm 1 m/s 702 mmHg 82%
    03:00 +16°C° 0 mm 1 m/s 702 mmHg 80%
    04:00 +16°C° 0 mm 1 m/s 702 mmHg 79%
    05:00 +18°C° 0 mm 1 m/s 702 mmHg 72%
    06:00 +20°C° 0 mm 1 m/s 703 mmHg 66%
    07:00 +20°C° 0 mm 2 m/s 704 mmHg 59%
    08:00 +22°C° 0 mm 3 m/s 704 mmHg 51%
    09:00 +25°C° 0 mm 4 m/s 704 mmHg 44%
    10:00 +27°C° 0 mm 4 m/s 704 mmHg 36%
    11:00 +28°C° 0 mm 5 m/s 704 mmHg 34%
    12:00 +29°C° 0 mm 5 m/s 704 mmHg 33%
    13:00 +30°C° 0 mm 5 m/s 703 mmHg 31%
    14:00 +30°C° 0 mm 4 m/s 703 mmHg 31%
    15:00 +30°C° 0 mm 4 m/s 703 mmHg 31%
    16:00 +30°C° 0 mm 4 m/s 703 mmHg 31%
    17:00 +28°C° 0.1 mm 3 m/s 703 mmHg 38%
    18:00 +26°C° 0.1 mm 2 m/s 703 mmHg 45%
    19:00 +24°C° 0.1 mm 1 m/s 703 mmHg 51%
    20:00 +22°C° 0 mm 1 m/s 703 mmHg 55%
    21:00 +21°C° 0 mm 1 m/s 704 mmHg 58%
    22:00 +20°C° 0 mm 1 m/s 704 mmHg 62%
    23:00 +19°C° 0 mm 1 m/s 704 mmHg 62%

    17 Décembre, Lundi

    Heure Température Précipitation Vent Pression Humidité
    00:00 +19°C° 0 mm 1 m/s 704 mmHg 62%
    01:00 +19°C° 0 mm 1 m/s 703 mmHg 62%
    02:00 +18°C° 0 mm 1 m/s 703 mmHg 63%
    03:00 +18°C° 0 mm 1 m/s 704 mmHg 64%
    04:00 +18°C° 0 mm 1 m/s 704 mmHg 65%
    05:00 +20°C° 0 mm 1 m/s 704 mmHg 61%
    06:00 +22°C° 0 mm 1 m/s 705 mmHg 56%
    07:00 +22°C° 0 mm 0 m/s 706 mmHg 51%
    08:00 +26°C° 0 mm 1 m/s 706 mmHg 45%
    09:00 +28°C° 0 mm 1 m/s 706 mmHg 40%
    10:00 +30°C° 0 mm 1 m/s 706 mmHg 34%
    11:00 +31°C° 0 mm 1 m/s 706 mmHg 32%
    12:00 +32°C° 0 mm 1 m/s 706 mmHg 30%
    13:00 +33°C° 0 mm 1 m/s 706 mmHg 28%
    14:00 +32°C° 0 mm 2 m/s 706 mmHg 31%
    15:00 +31°C° 0 mm 2 m/s 706 mmHg 33%
    16:00 +31°C° 0 mm 3 m/s 706 mmHg 36%
    17:00 +28°C° 0 mm 3 m/s 706 mmHg 47%
    18:00 +25°C° 0 mm 4 m/s 706 mmHg 58%
    19:00 +22°C° 0 mm 4 m/s 707 mmHg 69%
    20:00 +20°C° 0 mm 4 m/s 707 mmHg 74%
    21:00 +19°C° 0 mm 4 m/s 708 mmHg 79%
    22:00 +17°C° 0 mm 3 m/s 708 mmHg 85%
    23:00 +17°C° 0 mm 3 m/s 708 mmHg 85%
    Voir plus